CSN5782 ZGSZ-ZBAA

Flight info

Callsign CSN5782
Flight time N/A
Altitude 37100
Route MIPAG1 MIPAG W21 TEPID W22 YIN A461 BUBDA/K0882S1160 W56 REBIS/K0878S1130 W56 LEBUN/K0869S1160 W56 NUDKU/K0872S1190 W56 DUGEB DUGEB4A
Aircraft B77W/H-SDE1E2E3FGHIJ2J3J4J5M1RWXY/LB1D1

Departure

Time 2026-04-26 09:45
Airport Shenzhen Bao'an International Airport (ZGSZ)

Arrival

Time N/A
Airport Beijing Capital International Airport (ZBAA)
Time Latitude Longitude Altitude Speed Heading
2026-04-26 09:45 22.91224 113.73990 18996 ft 406 kts
2026-04-26 09:45 22.93506 113.74172 19430 ft 408 kts 359°
2026-04-26 09:45 22.96365 113.74194 19983 ft 409 kts 358°
2026-04-26 09:45 22.99256 113.74199 20527 ft 415 kts 358°
2026-04-26 09:46 23.02146 113.74204 21073 ft 417 kts 358°
2026-04-26 09:46 23.05040 113.74210 21617 ft 420 kts 358°
2026-04-26 09:46 23.07995 113.74216 22171 ft 425 kts 358°
2026-04-26 09:46 23.10968 113.74224 22723 ft 427 kts 358°
2026-04-26 09:47 23.13963 113.74232 23278 ft 432 kts 358°
2026-04-26 09:47 23.16963 113.74240 23833 ft 433 kts 358°
2026-04-26 09:47 23.19981 113.74223 24379 ft 436 kts 354°
2026-04-26 09:47 23.23022 113.73840 24936 ft 437 kts 346°
2026-04-26 09:48 23.25932 113.72998 25481 ft 438 kts 338°
2026-04-26 09:48 23.28745 113.71692 26035 ft 438 kts 330°
2026-04-26 09:48 23.31349 113.69959 26588 ft 439 kts 322°
2026-04-26 09:48 23.33696 113.67833 27141 ft 440 kts 314°
2026-04-26 09:49 23.35738 113.65359 27691 ft 443 kts 306°
2026-04-26 09:49 23.37548 113.62667 28243 ft 444 kts 304°
2026-04-26 09:49 23.39361 113.59910 28797 ft 448 kts 304°
2026-04-26 09:49 23.41193 113.57129 29355 ft 452 kts 304°
2026-04-26 09:50 23.43013 113.54369 29915 ft 452 kts 304°
2026-04-26 09:50 23.44836 113.51609 30477 ft 452 kts 304°
2026-04-26 09:50 23.46677 113.48824 31043 ft 453 kts 304°
2026-04-26 09:50 23.48690 113.46159 31606 ft 456 kts 312°
2026-04-26 09:51 23.51044 113.43838 32159 ft 458 kts 320°
2026-04-26 09:51 23.53687 113.41917 32719 ft 464 kts 327°
2026-04-26 09:51 23.56626 113.40414 33299 ft 468 kts 335°
2026-04-26 09:51 23.59786 113.39396 33922 ft 474 kts 344°
2026-04-26 09:52 23.63051 113.38914 34536 ft 480 kts 353°
2026-04-26 09:52 23.69775 113.39123 35791 ft 483 kts 358°
2026-04-26 09:52 23.73168 113.39310 36430 ft 481 kts 358°
2026-04-26 09:53 23.76521 113.39487 36958 ft 482 kts 358°
2026-04-26 09:53 23.79876 113.39658 36990 ft 483 kts 358°
2026-04-26 09:53 23.86579 113.39987 37002 ft 480 kts 358°
2026-04-26 09:54 23.93272 113.40305 37013 ft 481 kts 358°
2026-04-26 09:54 23.99322 113.40588 37023 ft 480 kts 358°
2026-04-26 09:55 24.04948 113.40850 37025 ft 480 kts 358°